www.pogodaiklimat.ru

АРХИВ ПОГОДЫ в Вашингтоне

Время (UTC), дата Ветер
(напр.,м/с)
 
Видим.   Явления Облачность Т
(С)
Тd
(С)
f
(%)
Тe
(С)
Тes
(С)
Комфортность

P
(гПа)

Po
(гПа)
Тmin
(С)
Tmax
(С)
R
(мм)
SD
(см)
01:52 25.05 Ю  16 км    ясно  +21.1  +15.0  68  +24  +24  комфорт  1020.8  1020.4         
02:52 25.05 штиль  16 км    ясно  +21.1  +15.6  71  +24  +24  комфорт  1020.7  1020.1         
03:52 25.05 Ю  16 км    ясно  +20.0  +15.6  76  +23  +23  комфорт  1020.5  1020.1         
04:52 25.05 Ю  16 км    2/0 7500 м
[верхняя] 
+19.4  +15.6  79  +21  +21  комфорт  1020.1  1019.7         
05:52 25.05 Ю  16 км    5/0 7500 м
[верхняя] 
+18.9  +15.6  81  +20  +20    1019.8  1019.4         
06:52 25.05 Ю  16 км    5/0 7500 м
[верхняя] 
+18.9  +15.6  81  +20  +20    1019.5  1019.0         
07:52 25.05 ЮЗ  16 км    2/0 7500 м
[верхняя] 
+18.3  +15.0  81  +19  +19    1019.2  1018.7         
08:52 25.05 ЮЗ  16 км    2/0 7500 м
[верхняя] 
+17.2  +14.4  84  +17  +17    1019.5  1019.0         
09:52 25.05 Ю  16 км    2/0 7500 м
[верхняя] 
+18.9  +16.1  84  +20  +20    1019.4  1019.0         
10:52 25.05 Ю  16 км    ясно  +19.4  +16.7  84  +21  +22  комфорт  1019.3  1018.7    +19.4     
11:52 25.05 Ю  16 км    ясно  +21.1  +16.7  76  +25  +27  комфорт  1019.0  1018.4         
12:52 25.05 Ю  16 км    2/0 7500 м
[верхняя] 
+23.9  +17.2  66  +28  +32  душно  1018.5  1018.0         
13:52 25.05 Ю  16 км    5/0 7500 м
[верхняя] 
+26.1  +17.2  58  +30  +34  душно  1018.0  1017.3         
14:52 25.05 Ю  16 км    5/0 7500 м
[верхняя] 
+27.8  +17.2  52  +32  +39  душно  1017.3  1016.7         
15:52 25.05 Ю  16 км    5/0 7500 м
[верхняя] 
+27.8  +17.2  52  +32  +38  душно  1016.3  1015.7         
16:52 25.05 Ю  16 км    8/2 1500 м
[верхняя] 
+29.0  +18.0  51  +33  +41  очень
душно 
1015.6  1015.0  +19.4       
17:52 25.05 Ю  16 км    8/2 1650 м
[верхняя] 
+28.3  +18.3  55  +33  +35  очень
душно 
1014.6  1014.0         
18:52 25.05 Ю  16 км    8/5 1500 м
[верхняя] 
+28.9  +18.9  55  +34  +37  очень
душно 
1013.9  1013.3         
19:52 25.05 Ю  16 км    8/5 1500 м
[верхняя] 
+29.0  +19.0  55  +34  +36  очень
душно 
1013.2  1012.6         
20:52 25.05 Ю  16 км    8/2 1500 м
[верхняя] 
+28.9  +18.9  55  +34  +35  очень
душно 
1012.8  1012.3         
21:52 25.05 Ю  16 км    8/2 1500 м
[верхняя] 
+28.9  +18.3  53  +34  +35  очень
душно 
1012.5  1011.9         
22:52 25.05 Ю  16 км    5/0 3300 м
[средняя верхняя] 
+28.0  +18.0  55  +33  +33  очень
душно 
1012.6  1011.9  +26.7       
23:52 25.05 Ю  16 км    5/0 3000 м
[средняя верхняя] 
+25.6  +18.9  66  +31  +31  очень
душно 
1012.5  1011.9         
00:52 26.05 Ю  16 км    ясно  +24.4  +18.9  71  +29  +29  душно  1012.9  1012.3         
01:52 26.05 Ю  16 км    2/0 2400 м
[средняя] 
+23.9  +18.9  74  +29  +29  душно  1013.0  1012.3         
02:52 26.05 Ю  16 км    2/0 2700 м
[средняя] 
+23.9  +18.9  74  +29  +29  душно  1012.6  1011.9         
03:52 26.05 Ю  16 км    10/0 3000 м
[средняя] 
+23.9  +18.9  74  +29  +29  душно  1012.5  1011.9         
04:52 26.05 Ю  16 км    2/0 3300 м
[средняя] 
+23.3  +18.9  76  +30  +30  очень
душно 
1011.9  1011.3         
05:52 26.05 Ю  16 км    8/0 3000 м
[средняя] 
+23.3  +18.9  76  +30  +30  очень
душно 
1011.6  1011.3         
06:52 26.05 Ю  16 км    5/0 3000 м
[средняя] 
+22.8  +18.9  79  +29  +29  очень
душно 
1011.4  1010.9         
07:52 26.05 Ю  16 км    5/0 3000 м
[средняя] 
+22.8  +18.9  79  +29  +29  очень
душно 
1011.4  1010.9         
08:52 26.05 Ю  16 км    5/0 3000 м
[средняя верхняя] 
+22.2  +19.4  84  +28  +28  душно  1011.5  1010.9         
09:52 26.05 Ю  16 км    8/0 4200 м
[средняя верхняя] 
+22.8  +19.4  81  +29  +29  очень
душно 
1011.8  1011.3         
10:52 26.05 Ю  16 км    8/0 4200 м
[средняя верхняя] 
+23.0  +19.0  78  +29  +29  очень
душно 
1012.0  1011.6  +21.7       
11:52 26.05 Ю  16 км    5/0 4200 м
[средняя верхняя] 
+24.4  +20.0  76  +30  +31  очень
душно 
1012.3  1011.9         
12:52 26.05 Ю  16 км    2/0 4200 м
[средняя верхняя] 
+26.1  +20.6  72  +33  +36  очень
душно 
1012.2  1011.6         
13:52 26.05 Ю  16 км    5/0 4500 м
[средняя верхняя] 
+28.0  +21.0  66  +35  +40  очень
душно 
1011.9  1011.3         
14:52 26.05 Ю  16 км    5/2 750 м
[средняя верхняя] 
+28.0  +21.0  66  +35  +38  очень
душно 
1011.6  1011.3         
15:52 26.05 Ю  16 км    5/2 900 м
[средняя верхняя] 
+29.0  +21.0  62  +36  +40  очень
душно 
1011.1  1010.6         
16:52 26.05 Ю  16 км    5/2 1200 м
[средняя верхняя] 
+30.0  +21.0  59  +38  +41  очень
душно 
1010.6  1009.9  +23.3  +30.0     
17:52 26.05 Ю  16 км    8/5 1500 м
[средняя верхняя] 
+29.4  +20.0  57  +36  +38  очень
душно 
1009.8  1009.2         
17:54 26.05 Ю  16 км  гроза  8/5 1500 м
[средняя верхняя] 
+29.4  +20.6  59  +36  +38  очень
душно 
  1009.2         
18:17 26.05 Ю  16 км  гроза  8/5 1500 м
[средняя верхняя] 
+28.9  +20.6  61  +36  +39  очень
душно 
  1009.6         
18:52 26.05 ЮЗ  16 км    10/5 1500 м
[средняя верхняя] 
+29.4  +20.6  59  +36  +38  очень
душно 
1018.5  1009.6         
19:52 26.05 Ю  16 км    10/0 2100 м
[средняя] 
+29.0  +21.0  62  +36  +40  очень
душно 
1010.1  1009.6         
20:52 26.05 Ю  16 км    10/5 1650 м
[средняя] 
+28.3  +21.1  65  +36  +37  очень
душно 
  1009.6         
21:23 26.05 Ю  16 км  слабый дождь  10/0 2250 м
[средняя] 
+28.3  +21.1  65  +36  +37  очень
душно 
  1009.9         
21:52 26.05 ЮЗ  16 км    10/2 1290 м
[средняя] 
+28.9  +21.1  63  +36  +37  очень
душно 
1010.4  1009.9         

 

Местоположение метеостанции Reagan National Airport: широта 38.8483 долгота -77.0342 высота над уровнем моря 4 м.

В архиве по умолчанию представлена погода в Вашингтоне за последние 1-2 суток. Обновление информации о фактической погоде в базе происходит ежечасно! Архивные данные за месяц целиком и за предыдущие месяцы Вы можете получить, выбрав интересующий диапазон дат из раскрывающегося списка и нажав кнопку "Ввод!".

Внимание! Архив погоды МЕТАР в базе сайта в настоящее время начинается c 1 января 2013 г. Нет смысла пытаться выбрать более раннюю дату.

Внимание! Время в таблицах - всемирное. Для получения местного времени необходимо прибавить поправку, которая в Вашингтоне равна -5 ч.

Ветер - указаны скорость ветра в м/с и направление, откуда дует ветер: С - северный, СВ - северо-восточный, В - восточный, ЮВ - юго-восточный, Ю - южный, ЮЗ - юго-западный, З - западный, СЗ - северо-западный.
Видимость - горизонтальная дальность видимости в метрах или километрах. При видимости от 1 до 10 км при отсутствии осадков обычно наблюдается дымка, при ухудшении видимости до 1 км и менее - туман. В сухую погоду видимость может ухудшаться дымом, пылью или мглою.
Атмосферные явления - указаны явления, наблюдавшиеся в указанный момент времени.
Облачность - указаны через наклонную черту верхняя и нижняя облачность в баллах и высота нижней границы облаков в метрах. Внимание: облачность, как и прочие метеорологические величины в США измеряются автоматическими метеостанциями. Указанные значения в баллах носят условный характер и показывают процент времени, в течение которого, в среднем, лазерный луч высотомера отражался от облаков обратно.
T - Температура воздуха - температура, измеренная на высоте 2 м над землей.
Td - Температура точки росы - температура, при понижении до которой содержащийся в воздухе водяной пар достигнет насыщения.
f - Относительная влажность воздуха - влажноcть воздуха, измеренная на высоте 2 м над землей.
Te - Эффективная температура - температура, которую ощущает одетый по сезону человек в тени. Характеристика душности погоды. При расчете учитывается влияние влажности воздуха и скорости ветра на теплоощущения человека.
Tes - Эффективная температура на солнце - температура, которую ощущает человек, с поправкой на солнечный нагрев. Характеристика знойности погоды. Зависит от высоты солнца над горизонтом, облачности и скорости ветра. Ночью, в пасмурную погоду, а также при ветре 12 м/с и более поправка равна нулю.
P - Атмосферное давление - приведенное к уровню моря атмосферное давление.
Po - Атмосферное давление - измеренное на уровне метеостанции атмосферное давление.
Tmin - Минимальная температура - минимум температуры воздуха на высоте 2 м над землей.
Tmax - Максимальная температура - максимум температуры воздуха на высоте 2 м над землей.
R - Количество осадков - Количество выпавших осадков за 3 или 6 часов, мм.
SD - Снежный покров - Высота снежного покрова, см.